Home > Weather > Myrtle Beach > Past weeks

Flag for U.S.A. Weather for the Past 2 Weeks in Myrtle Beach, South Carolina, U.S.A.

Now
28 °F

Clear.


Feels Like: 20 °F
Forecast: 22 / 37 °F
Wind: 8 mph from Northeast

Location: Myrtle Beach Air Force Base

Current Time: Feb 14, 2016 at 2:02:32 AM

Latest Report: Feb 14, 2016 at 1:35 AM


Visibility: 10 mi

Pressure: 30.43 "Hg

Humidity: 40%

Dew point: 7 °F

Location of Myrtle BeachLocation

Historic Weather in Myrtle Beach — Graph

°F

Myrtle Beach Temperature Yesterday

Maximum temperature yesterday: 45 °F (at 12:45 PM)
Minimum temperature yesterday: 30 °F (at 3:15 AM)
Average temperature yesterday: 35 °F

High & Low Weather Summary for the Past Weeks

 TemperatureHumidityPressure
High72 °F (Feb 1, 11:47 AM)88% (Feb 3, 5:15 AM)30.44 "Hg (Feb 3, 5:15 AM)
Low28 °F (Feb 11, 5:55 AM)27% (Feb 13, 2:45 PM)29.68 "Hg (Feb 9, 12:35 AM)
Average46 °F62%30.09 "Hg
* Reported Jan 30 12:35 AM — Feb 14 12:55 AM, Myrtle Beach, Weather by CustomWeather, © 2016

Note: Actual official high and low records may vary slightly from our data, if they occured in-between our weather recording intervals... More about our weather records

Advertising

Myrtle Beach Weather History for the Previous 24 Hours

 ConditionsComfort  
Time TempWeatherWind HumidityBarometerVisibility
12:55 AM
Sun, Feb 14
28 °FClear.8 mph40%30.43 "Hg10 mi
12:35 AM28 °FClear.8 mph40%30.43 "Hg10 mi
12:15 AM28 °FClear.7 mph40%30.43 "Hg10 mi
11:55 PM
Sat, Feb 13
30 °FClear.7 mph37%30.44 "Hg10 mi
11:35 PM30 °FClear.7 mph37%30.44 "Hg10 mi
10:55 PM30 °FClear.7 mph37%30.44 "Hg10 mi
9:45 PM34 °FClear.10 mph38%30.42 "Hg10 mi
8:45 PM34 °FClear.9 mph41%30.40 "Hg10 mi
7:45 PM36 °FClear.9 mph38%30.37 "Hg10 mi
6:45 PM39 °FClear.N/A30%30.35 "Hg10 mi
4:45 PM45 °FSunny.10 mph27%30.29 "Hg10 mi
3:45 PM45 °FSunny.15 mph27%30.28 "Hg10 mi
2:45 PM45 °FSunny.14 mph27%30.27 "Hg10 mi
1:45 PM45 °FSunny.17 mph31%30.27 "Hg10 mi
12:45 PM45 °FSunny.14 mph31%30.29 "Hg10 mi
11:45 AM43 °FSunny.12 mph34%30.30 "Hg10 mi
9:45 AM39 °FSunny.17 mph48%30.29 "Hg10 mi
8:45 AM37 °FSunny.12 mph60%30.27 "Hg10 mi
7:45 AM30 °FSunny.7 mph75%30.23 "Hg10 mi
6:45 AM30 °FClear.7 mph69%30.20 "Hg10 mi
5:50 AM30 °FClear.8 mph75%30.16 "Hg10 mi
5:35 AM32 °FClear.6 mph75%30.15 "Hg10 mi
5:15 AM30 °FClear.6 mph75%30.14 "Hg10 mi
4:55 AM30 °FClear.6 mph69%30.13 "Hg10 mi
4:35 AM30 °FClear.6 mph69%30.12 "Hg10 mi
4:15 AM30 °FClear.5 mph69%30.12 "Hg10 mi
3:55 AM30 °FClear.3 mph75%30.11 "Hg10 mi
3:35 AM30 °FClear.3 mph75%30.11 "Hg10 mi
3:15 AM30 °FClear.5 mph69%30.10 "Hg10 mi
2:55 AM32 °FClear.5 mph69%30.10 "Hg10 mi
2:35 AM32 °FClear.3 mph69%30.09 "Hg10 mi
2:15 AM32 °FClear.5 mph69%30.09 "Hg10 mi
Weather by CustomWeather, © 2016

See weather overviewHow to use our weather pages